Weather in Astreyevo

Russia / Kaluga Oblast     55°00′43″N   36°11′25″E
temp.,
°C
wind,
m/s
gust,
m/s
humid.,
%
clouds,
%
prec.,
mm/h
press.,
hPa
HPBL,
m
11 may, tue
tue1100:00+5ne35815 0.0 102784
03:00+4nne48850 0.0 1027128
06:00+5nne411840 0.0 1027250
09:00+11ne610630 0.0 1027617
12:00+16ne68560 0.0 1025812
15:00+18ene67564 0.0 10241014
18:00+17ene48700 0.0 1024710
21:00+12ene3793100 0.2 1025124
12 may, wed
wed1200:00+10sse389541 0.0 1027249
03:00+7se22932 0.0 102731
06:00+7se11916 0.0 102733
09:00+10ene2282100 0.0 1027201
12:00+13n2470100 0.0 1024632
15:00+17ne51072100 0.3 10171266
18:00+13e81595100 4.4 10161144
21:00+6ese3109726 4.7 1020370
13 may, thu
thu1300:00+5e389713 0.0 1020180
03:00+6e51395100 0.0 1019339
06:00+8ese5129319 0.0 1019468
09:00+12sse587769 0.0 1019852
12:00+15sse5760100 0.0 10181480
15:00+16sse45656 0.3 10171127
18:00+15sse35753 0.6 1016804
21:00+11se3592100 0.7 101676
14 may, fri
fri1400:00+9se379470 0.0 1016138
03:00+9sse349539 0.0 101665
06:00+10se2796100 0.0 1017182
09:00+13se4995100 0.4 1016418
12:00+18se697751 0.9 1015928
15:00+19se61078100 3.5 10131043
18:00+19sse5108113 4.6 1011491
21:00+15se3695100 7.1 1011107
15 may, sat
sat1500:00+14s339499 0.0 101138
03:00+13sse2295100 0.0 101127
06:00+14se3695100 0.4 1010161
09:00+17s498584 0.8 1010655
12:00+17ssw4689100 0.9 1009403
15:00+19ssw687722 5.8 10081077
18:00+18w3479100 0.3 1008529
21:00+14ene119399 2.0 100814